DateTimeUTC,F1_A11,F1_S11,BsB_S11,BsG_S11,BsR_S11,BbsB_S11,BbsG_S11,BbsR_S11,BaB_A11,BaG_A11,BaR_A11,Tu_S11,T_S11,Uu_S11,U_S11,P_S11,T1_A11
2021-03-14T05:00:00Z,00000200,21000000,,,,,,,-000.03,-000.21,0000.00,16.0,23.8,,00.0,0639.2,30.8
2021-03-14T05:01:00Z,00000200,21000000,,,,,,,-000.42,-000.27,-000.34,16.0,23.8,,00.0,0639.2,30.9
2021-03-14T05:02:00Z,00000200,21000000,,,,,,,0000.20,-000.23,0000.40,16.0,23.8,,00.0,0639.2,30.9
2021-03-14T05:03:00Z,00000200,61000000,,,,,,,-000.09,-000.15,-000.14,16.0,23.9,,00.0,0639.2,30.9
2021-03-14T05:04:00Z,00000200,41000000,0000.54,-000.17,0000.05,-000.08,0000.21,0000.09,-000.15,-000.03,-000.34,16.4,23.8,,00.0,0640.1,30.9
2021-03-14T05:05:00Z,00000200,01000000,0000.07,0000.13,0000.07,-000.15,0000.09,0000.25,0000.42,0000.32,0000.40,16.5,23.7,,00.0,0640.2,30.9
2021-03-14T05:06:00Z,00000200,01000000,0000.15,0000.28,0000.26,-000.01,-000.03,0000.01,-000.21,-000.07,-000.08,16.6,23.7,,00.0,0640.2,30.9
2021-03-14T05:07:00Z,00000200,01000000,0001.02,0000.41,-000.01,0000.29,0000.18,0000.20,-000.01,-000.15,0000.20,16.6,23.7,,00.0,0640.2,30.9
2021-03-14T05:08:00Z,00000200,01000000,0000.40,0000.19,0000.23,-000.00,0000.10,0000.24,-000.12,0000.00,-000.45,16.6,23.7,,00.0,0640.2,30.9
2021-03-14T05:09:00Z,00000200,01000000,0000.25,0000.07,-000.15,0000.38,-000.17,0000.06,0000.24,0000.20,0000.30,16.6,23.7,,00.0,0640.2,30.9
2021-03-14T05:10:00Z,00000200,01000000,0000.53,-000.03,0000.06,-000.03,0000.10,0000.21,-000.06,-000.13,-000.01,16.5,23.7,,00.0,0640.2,30.8
2021-03-14T05:11:00Z,00000200,01000000,0000.08,0000.31,0000.25,-000.06,0000.04,0000.11,0000.14,0000.12,0000.28,16.4,23.6,,00.0,0640.2,30.8
2021-03-14T05:12:00Z,00000200,01000000,0000.36,0000.17,0000.13,-000.30,0000.18,0000.34,0000.24,0000.33,0000.09,16.4,23.6,,00.0,0640.2,30.8
2021-03-14T05:13:00Z,00000200,01000000,0000.10,0000.34,0000.00,-000.13,0000.05,0000.27,0000.15,0000.51,0000.22,16.4,23.6,,00.0,0640.2,30.8
2021-03-14T05:14:00Z,00000200,01000000,0000.16,-000.18,-000.09,-000.11,0000.19,0000.14,0000.54,0000.14,0000.11,16.5,23.6,,00.0,0640.2,30.8
2021-03-14T05:15:00Z,00000200,01000000,0000.50,0000.05,0000.09,0000.31,0000.09,0000.31,0000.75,0000.59,0000.46,16.5,23.6,,00.0,0640.2,30.8
2021-03-14T05:16:00Z,00000200,01000000,0000.16,0000.31,0000.08,0000.06,0000.36,0000.05,0000.15,0000.18,0000.08,16.5,23.6,,00.0,0640.2,30.9
2021-03-14T05:17:00Z,00000200,01000000,0000.72,0000.14,0000.14,0000.18,0000.18,0000.24,-000.09,0000.11,0000.02,16.6,23.7,,00.0,0640.2,30.9
2021-03-14T05:18:00Z,00000200,01000000,0000.91,0000.21,0000.09,0000.12,0000.05,0000.13,-000.01,-000.08,-000.26,16.6,23.7,,00.0,0640.2,30.9
2021-03-14T05:19:00Z,00000200,01000000,0000.11,0000.39,0000.05,0000.16,0000.25,0000.10,-000.14,-000.29,0000.22,16.7,23.7,,00.0,0640.2,30.9
2021-03-14T05:20:00Z,00000200,01000000,0000.22,0000.19,-000.06,-000.39,0000.08,0000.28,-000.28,-000.10,0000.04,16.7,23.7,,00.0,0640.2,30.9
2021-03-14T05:21:00Z,00000200,01000000,0000.50,0000.20,0000.06,0000.12,0000.24,-000.00,0000.04,0000.29,-000.31,16.7,23.7,,00.0,0640.2,30.9
2021-03-14T05:22:00Z,00000200,01000000,0000.33,0000.15,0000.30,0000.11,0000.19,0000.09,-000.30,-000.65,-000.36,16.7,23.7,,00.0,0640.2,30.9
2021-03-14T05:23:00Z,00000200,01000000,-000.02,0000.09,0000.13,0000.03,0000.08,0000.24,-000.48,-000.01,0000.19,16.6,23.7,,00.0,0640.2,30.9
2021-03-14T05:24:00Z,00000200,01000000,0000.30,0000.19,0000.13,-000.38,0000.04,0000.02,0000.01,-000.35,-000.09,16.5,23.7,,00.0,0640.2,30.8
2021-03-14T05:25:00Z,00000200,01000000,0000.73,0000.25,-000.04,-000.04,0000.06,0000.30,-000.18,-000.16,-000.29,16.5,23.6,,00.0,0640.2,30.8
2021-03-14T05:26:00Z,00000200,01000000,0000.66,0000.32,0000.29,-000.11,0000.03,0000.23,-000.01,-000.02,-000.35,16.4,23.6,,00.0,0640.2,30.8
2021-03-14T05:27:00Z,00000200,01000000,0000.54,0000.26,0000.13,0000.23,0000.03,0000.15,0000.03,0000.08,0000.53,16.4,23.6,,00.0,0640.2,30.8
2021-03-14T05:28:00Z,00000200,01000000,0000.82,0000.18,0000.04,0000.02,-000.08,0000.36,0000.27,0000.12,-000.13,16.4,23.5,,00.0,0640.2,30.8
2021-03-14T05:29:00Z,00000200,01000000,0000.07,0000.30,0000.23,0000.38,0000.06,0000.22,0000.11,0000.09,0000.50,16.4,23.5,,00.0,0640.2,30.8
2021-03-14T05:30:00Z,00000200,01000000,0000.22,-000.08,0000.20,-000.30,0000.04,0000.26,-000.08,0000.28,0000.01,16.5,23.6,,00.0,0640.2,30.9
2021-03-14T05:31:00Z,00000200,01000000,0000.43,0000.22,0000.05,-000.26,0000.10,0000.27,-000.13,-000.29,-000.39,16.5,23.6,,00.0,0640.3,30.9
2021-03-14T05:32:00Z,00000200,01000000,0000.26,0000.24,0000.09,-000.25,0000.13,0000.39,0000.30,0000.16,0000.14,16.5,23.6,,00.0,0640.3,30.9
2021-03-14T05:33:00Z,00000200,01000000,0000.31,0000.09,0000.06,0000.35,0000.05,0000.22,-000.31,-000.19,0000.01,16.5,23.6,,00.0,0640.3,30.8
2021-03-14T05:34:00Z,00000200,01000000,0000.27,-000.02,-000.01,-000.44,0000.10,0000.39,0000.00,-000.20,-000.21,16.4,23.6,,00.0,0640.3,30.8
2021-03-14T05:35:00Z,00000200,01000000,0000.18,0000.14,0000.13,-000.00,-000.05,0000.06,0000.00,-000.19,-000.04,16.4,23.5,,00.0,0640.3,30.8
2021-03-14T05:36:00Z,00000200,01000000,0000.57,-000.08,0000.06,-000.29,0000.09,0000.16,-000.15,0000.25,0000.06,16.3,23.5,,00.0,0640.2,30.8
2021-03-14T05:37:00Z,00000200,01000000,0000.06,0000.05,0000.35,0000.52,-000.03,0000.32,-000.06,-000.08,-000.18,16.2,23.5,,00.0,0640.2,30.8
2021-03-14T05:38:00Z,00000200,01000000,-000.04,-000.20,0000.22,0000.21,0000.07,0000.23,0000.33,0000.52,0000.36,16.2,23.4,,00.0,0640.2,30.8
2021-03-14T05:39:00Z,00000200,01000000,0000.46,-000.10,0000.25,0000.09,0000.27,0000.10,0000.14,-000.30,-000.29,16.1,23.4,,00.0,0640.3,30.8
2021-03-14T05:40:00Z,00000200,01000000,0000.11,0000.40,0000.12,-000.12,0000.14,0000.04,0000.13,0000.16,0000.28,16.0,23.4,,00.0,0640.2,30.8
2021-03-14T05:41:00Z,00000200,01000000,0000.76,0000.28,-000.11,-000.29,0000.16,0000.17,-000.22,-000.48,0000.02,16.0,23.3,,00.0,0640.2,30.8
2021-03-14T05:42:00Z,00000200,01000000,0000.87,0000.17,0000.09,0000.45,0000.25,0000.13,0000.21,0000.35,0000.16,16.0,23.3,,00.0,0640.2,30.8
2021-03-14T05:43:00Z,00000200,01000000,0000.56,0000.25,0000.03,0000.08,0000.03,0000.28,-000.56,-000.08,-000.47,16.0,23.3,,00.0,0640.2,30.8
2021-03-14T05:44:00Z,00000200,01000000,0000.34,0000.48,-000.22,-000.06,-000.31,-000.03,0000.14,0000.16,0000.53,16.1,23.3,,00.0,0640.2,30.8
2021-03-14T05:45:00Z,00000200,01000000,0000.95,0000.39,-000.09,0000.32,0000.11,0000.06,0000.13,0000.01,-000.22,16.1,23.3,,00.0,0640.2,30.8
2021-03-14T05:46:00Z,00000200,01000000,0000.66,0000.04,0000.04,0000.37,0000.18,0000.10,0000.07,-000.13,0000.17,16.2,23.3,,00.0,0640.2,30.8
2021-03-14T05:47:00Z,00000200,01000000,0000.59,0000.30,0000.10,-000.38,0000.10,0000.34,-000.03,-000.11,-000.36,16.2,23.4,,00.0,0640.2,30.8
2021-03-14T05:48:00Z,00000200,01000000,0000.60,0000.32,0000.10,-000.06,-000.02,-000.02,0000.00,0000.21,0000.37,16.3,23.4,,00.0,0640.2,30.8
2021-03-14T05:49:00Z,00000200,01000000,-000.51,0000.26,0000.46,0000.25,0000.05,0000.09,0000.28,-000.04,-000.12,16.3,23.4,,00.0,0640.2,30.8
2021-03-14T05:50:00Z,00000200,01000000,0000.62,0000.17,0000.17,0000.07,0000.07,0000.36,0000.30,0000.00,0000.44,16.4,23.4,,00.0,0640.2,30.8
2021-03-14T05:51:00Z,00000200,01000000,0000.44,0000.22,-000.06,0000.25,0000.12,0000.37,-000.31,0000.37,-000.54,16.4,23.4,,00.0,0640.2,30.8
2021-03-14T05:52:00Z,00000200,01000000,0000.22,0000.06,0000.11,-000.10,0000.22,0000.09,0000.10,-000.05,0000.18,16.4,23.4,,00.0,0640.2,30.8
2021-03-14T05:53:00Z,00000200,01000000,0000.20,0000.07,0000.23,-000.00,0000.13,0000.24,-000.13,0000.00,-000.14,16.4,23.4,,00.0,0640.2,30.8
2021-03-14T05:54:00Z,00000200,01000000,0000.50,-000.07,0000.25,0000.17,0000.12,0000.24,-000.01,0000.03,0000.33,16.4,23.4,,00.0,0640.2,30.8
2021-03-14T05:55:00Z,00000200,01000000,0000.88,0000.34,0000.19,0000.28,0000.24,-000.09,0000.12,-000.43,-000.02,16.3,23.4,,00.0,0640.2,30.8
2021-03-14T05:56:00Z,00000200,01000000,0000.70,-000.10,-000.12,-000.04,0000.08,0000.24,0000.10,-000.10,-000.28,16.2,23.4,,00.0,0640.2,30.8
2021-03-14T05:57:00Z,00000200,41000000,,,,,,,0000.98,0001.11,0001.12,16.3,23.4,,00.0,0640.2,30.8
2021-03-14T05:58:00Z,00000200,61000000,,,,,,,-000.61,-000.09,-000.47,15.9,23.5,,00.0,0639.3,30.8
2021-03-14T05:59:00Z,00000200,21000000,,,,,,,-000.07,-000.07,0000.18,15.9,23.6,,00.0,0639.3,30.8
